[[{"header":{"parameterUnit":"m.s-1","parameterCategory":2,"la1":30.2991,"la2":30.254,"lo1":-89.0895,"lo2":-89.0444,"dy":0.0017,"dx":0.0017,"nx":28,"ny":28,"refTime":"2025-03-30T03:00:00:Z","depth":"0","parameterNumber":2,"parameterNumberName":"U-component_of_CURRENTS"},"data":[0,0,0,0,0,0,0,0,0,0,0,0,0,0,0,0,0,0,0,0,0,0,0,0,0,0,0,0,0,0,0,0,0,0,0,0,0,0,0,0,0,0,0,0,0,0,0,0,0,0,0,0,0,0,0,0,0,0,0.4426,0.4428,0,0.4573,0.4574,0.4576,0.4565,0.4563,0.4561,0.4559,0.4485,0.4485,0.4485,0,0,0,0,0,0,0,0,0,0,0,0,0,0.419,0.4194,0.4426,0.4428,0.443,0.4573,0.4574,0.4576,0.4565,0.4563,0.4561,0.4558,0.4485,0.4485,0.4485,0,0,0,0,0,0,0,0,0,0,0,0,0,0.4307,0.4195,0.4425,0.4445,0.4448,0.4572,0.4574,0.4576,0.4566,0.4563,0.456,0.4557,0.4485,0.4485,0.4485,0.4538,0,0,0.4484,0.4483,0,0,0,0,0,0,0,0,0.43,0.4315,0.444,0.4444,0.4448,0.4551,0.4465,0.4554,0.4566,0.4517,0.4559,0.4556,0.4491,0.449,0.4522,0.4534,0.4531,0.4484,0.4483,0.4483,0.4483,0,0,0,0,0,0,0,0.4292,0.4309,0.448,0.4442,0.4447,0.4465,0.4477,0.4482,0.4511,0.4521,0.4522,0.4545,0.4491,0.4523,0.4519,0.453,0.4484,0.4483,0.4483,0.4483,0.4659,0.4664,0,0,0,0,0,0,0.4283,0.4302,0.4475,0.4485,0.437,0.4472,0.4485,0.4517,0.4516,0.4516,0.4547,0.4544,0.4525,0.452,0.4516,0.463,0.4483,0.4483,0.4483,0.4654,0.466,0.4666,0,0,0,0,0,0,0.4277,0.4297,0.447,0.4398,0.4422,0.4478,0.4515,0.4522,0.456,0.4539,0.4533,0.4578,0.4522,0.4517,0.4543,0.4624,0.4483,0.4482,0.4649,0.4656,0.4663,0.4824,0,0,0,0,0,0,0.427,0.4294,0.4317,0.4398,0.4426,0.4569,0.4518,0.4527,0.458,0.4577,0.4564,0.4554,0.452,0.4545,0.4543,0.4621,0.4482,0.4642,0.4652,0.4661,0.4812,0.4836,0.4856,0,0,0,0,0,0.4261,0.4314,0.4318,0.4339,0.4455,0.4572,0.459,0.4615,0.4584,0.4632,0.4613,0.4555,0.4603,0.4548,0.4545,0.4625,0.4638,0.4649,0.466,0.4803,0.4831,0.4855,0,0,0,0,0,0,0.4232,0.4321,0.4326,0.4404,0.4489,0.4572,0.4619,0.4634,0.4664,0.4646,0.4601,0.4594,0.4655,0.4626,0.4567,0.471,0.4619,0.463,0.4728,0.4755,0.4776,0.4746,0.4482,0,0,0,0,0,0.4236,0.4294,0.4385,0.4451,0.4493,0.4556,0.4603,0.4632,0.4671,0.4683,0.468,0.4681,0.4707,0.4712,0.4729,0.4794,0.477,0.4854,0.4875,0.4894,0.4874,0.4905,0.4926,0.4702,0.4702,0.4702,0,0,0.4241,0.4301,0.4332,0.4448,0.4506,0.4597,0.4578,0.4672,0.4754,0.4667,0.4761,0.4753,0.4742,0.4824,0.4851,0.4801,0.4965,0.4908,0.4923,0.4892,0.4918,0.4939,0.4958,0.4709,0.4708,0.4707,0,0,0.4295,0.4339,0.4404,0.448,0.4587,0.4642,0.4672,0.4775,0.4826,0.4918,0.4883,0.491,0.4964,0.4972,0.4978,0.513,0.5079,0.5165,0.5243,0.5277,0.5293,0.5307,0.5374,0.5392,0.5174,0.5174,0.5174,0,0.4286,0.4382,0.4447,0.4535,0.459,0.4662,0.4743,0.484,0.4942,0.4981,0.4965,0.5043,0.5033,0.5104,0.5169,0.5174,0.5195,0.5138,0.53,0.5313,0.5325,0.5388,0.5406,0.5183,0.5182,0.5181,0.518,0,0.4401,0.4464,0.4517,0.4637,0.4717,0.4806,0.493,0.5024,0.5076,0.5144,0.5241,0.5243,0.5264,0.5308,0.5281,0.5384,0.5378,0.5322,0.5219,0.5356,0.5417,0.5433,0.5196,0.5193,0.519,0.5188,0,0,0.4387,0.4553,0.4566,0.4611,0.4764,0.484,0.4996,0.5136,0.5218,0.5325,0.5401,0.548,0.5458,0.5464,0.5452,0.5491,0.5624,0.5455,0.5453,0.5497,0.5739,0.5693,0.5705,0.5599,0.5601,0.5603,0.5771,0,0.4437,0.4579,0.466,0.4783,0.4853,0.4955,0.5091,0.5227,0.5335,0.5445,0.5483,0.5553,0.5535,0.5537,0.5584,0.5591,0.5663,0.5585,0.5617,0.5619,0.5539,0.572,0.5431,0.555,0.5786,0.5788,0.579,0,0.4518,0.4587,0.4704,0.4827,0.4868,0.4952,0.5118,0.5251,0.5431,0.5515,0.5586,0.562,0.5699,0.565,0.5755,0.5711,0.5747,0.5761,0.5766,0.5658,0.56,0.5441,0.5569,0.546,0.5813,0.5812,0.581,0,0.4474,0.4615,0.469,0.4739,0.4907,0.4961,0.505,0.5243,0.5354,0.553,0.5591,0.5705,0.5725,0.5797,0.5852,0.5815,0.5962,0.5899,0.5908,0.5906,0.5627,0.5596,0.5612,0.599,0.5989,0.5989,0.5988,0,0.4504,0.4549,0.4661,0.4703,0.4781,0.4906,0.5017,0.5157,0.5323,0.5439,0.558,0.5678,0.5759,0.5854,0.5905,0.5973,0.6013,0.5954,0.595,0.5687,0.5661,0.552,0.5473,0.5995,0.5994,0.5992,0.5991,0,0.4454,0.4544,0.4604,0.4728,0.4766,0.4808,0.496,0.5051,0.5229,0.5369,0.5419,0.5654,0.5815,0.5915,0.6038,0.6016,0.5933,0.6111,0.5824,0.5783,0.565,0.5622,0.5432,0.5271,0.6143,0.6143,0.6143,0,0.4441,0.4473,0.4577,0.4599,0.4639,0.4717,0.479,0.4983,0.5081,0.5365,0.542,0.5638,0.5796,0.5993,0.6013,0.6116,0.5958,0.5885,0.5744,0.5639,0.5606,0.5408,0.5271,0.5475,0.5469,0.5465,0.5461,0,0.4356,0.439,0.4431,0.4499,0.4544,0.4614,0.4716,0.4787,0.5024,0.5161,0.5373,0.5521,0.5742,0.5731,0.5864,0.5886,0.5585,0.5797,0.5727,0.5132,0.487,0.4711,0.5417,0.542,0.5424,0.5427,0.543,0.5431,0.4238,0.4242,0.4307,0.4363,0.4417,0.4483,0.4484,0.4629,0.4766,0.4926,0.5187,0.5298,0.542,0.5585,0.5581,0.5374,0.5388,0.5181,0.5184,0.5016,0.4752,0.5413,0.5381,0.5385,0.5388,0.5391,0.5394,0,0.4083,0.413,0.4172,0.4217,0.422,0.4319,0.4414,0.439,0.4467,0.4696,0.4838,0.491,0.4942,0.5017,0.4919,0.4746,0.4511,0.4638,0.4262,0.4178,0.4797,0.4659,0.4418,0.4418,0.4418,0.4418,0.4418,0.4418,0.3992,0.3991,0.4044,0.4005,0.4035,0.3973,0.3984,0.4004,0.4109,0.4158,0.4179,0.4292,0.452,0.4615,0.4437,0.4322,0.4007,0.3815,0.389,0.4321,0.4369,0.4415,0.4275,0.3957,0.3956,0.301,0.3003,0.2998]},{"header":{"parameterUnit":"m.s-1","parameterCategory":2,"la1":30.2991,"la2":30.254,"lo1":-89.0895,"lo2":-89.0444,"dy":0.0017,"dx":0.0017,"nx":28,"ny":28,"refTime":"2025-03-30T03:00:00:Z","depth":"0","parameterNumber":3,"parameterNumberName":"V-component_of_CURRENTS"},"data":[0,0,0,0,0,0,0,0,0,0,0,0,0,0,0,0,0,0,0,0,0,0,0,0,0,0,0,0,0,0,0,0,0,0,0,0,0,0,0,0,0,0,0,0,0,0,0,0,0,0,0,0,0,0,0,0,0,0,-0.0108,-0.0109,0,-0.0231,-0.0232,-0.0234,-0.0302,-0.0302,-0.0302,-0.0302,-0.0406,-0.0409,-0.0411,0,0,0,0,0,0,0,0,0,0,0,0,0,0.0018,0.0016,-0.0108,-0.0109,-0.011,-0.023,-0.0232,-0.0234,-0.0302,-0.0302,-0.0302,-0.0302,-0.0405,-0.0408,-0.0412,0,0,0,0,0,0,0,0,0,0,0,0,0,-0.0066,0.0015,-0.0107,-0.0157,-0.0163,-0.023,-0.0232,-0.0235,-0.0302,-0.0302,-0.0302,-0.0302,-0.0404,-0.0408,-0.0412,-0.0437,0,0,-0.0425,-0.0426,0,0,0,0,0,0,0,0,-0.0061,-0.007,-0.0149,-0.0154,-0.016,-0.0249,-0.0226,-0.0301,-0.0302,-0.0251,-0.0302,-0.0302,-0.0351,-0.0359,-0.0385,-0.0442,-0.0446,-0.0425,-0.0427,-0.0429,-0.043,0,0,0,0,0,0,0,-0.0055,-0.0066,-0.0158,-0.015,-0.0157,-0.0191,-0.0202,-0.0241,-0.03,-0.0255,-0.026,-0.0271,-0.0354,-0.0381,-0.0388,-0.0448,-0.0425,-0.0429,-0.0431,-0.0433,-0.0504,-0.0504,0,0,0,0,0,0,-0.0034,-0.006,-0.0154,-0.0162,-0.0108,-0.0193,-0.0206,-0.0222,-0.03,-0.0312,-0.0271,-0.0273,-0.0374,-0.0383,-0.0392,-0.0398,-0.0429,-0.0433,-0.0435,-0.0505,-0.0504,-0.0504,0,0,0,0,0,0,-0.0031,-0.0041,-0.0149,-0.0112,-0.0128,-0.0194,-0.0212,-0.0224,-0.0246,-0.0312,-0.0323,-0.0279,-0.0374,-0.0386,-0.0424,-0.0404,-0.0435,-0.0439,-0.0506,-0.0505,-0.0504,-0.0428,0,0,0,0,0,0,-0.0027,-0.0039,-0.0044,-0.0111,-0.0129,-0.0179,-0.0213,-0.0227,-0.0252,-0.0257,-0.0323,-0.0333,-0.0375,-0.0418,-0.0428,-0.041,-0.0442,-0.0506,-0.0505,-0.0504,-0.0432,-0.0425,-0.042,0,0,0,0,0,-0.0022,-0.0026,-0.0044,-0.0055,-0.0133,-0.0178,-0.0191,-0.024,-0.0252,-0.026,-0.0306,-0.0331,-0.0418,-0.0421,-0.0434,-0.0416,-0.0507,-0.0505,-0.0504,-0.0434,-0.0426,-0.042,0,0,0,0,0,0,0.0029,-0.0035,-0.0056,-0.0079,-0.0119,-0.0189,-0.02,-0.0231,-0.0275,-0.0277,-0.0335,-0.0349,-0.0374,-0.0406,-0.0408,-0.0432,-0.0461,-0.0462,-0.0404,-0.0397,-0.0391,-0.0358,-0.0445,0,0,0,0,0,0.0039,0.0015,-0.0043,-0.006,-0.0075,-0.0134,-0.0157,-0.0189,-0.0237,-0.0257,-0.0301,-0.0343,-0.038,-0.0396,-0.0438,-0.0454,-0.0463,-0.0447,-0.0441,-0.0435,-0.0417,-0.0424,-0.0416,-0.0499,-0.0499,-0.0499,0,0,0.0055,0.0016,0.0003,-0.0051,-0.0086,-0.0095,-0.0148,-0.0176,-0.0184,-0.026,-0.028,-0.0329,-0.0382,-0.0404,-0.0416,-0.0426,-0.0415,-0.0434,-0.0429,-0.0413,-0.0421,-0.0413,-0.0406,-0.0498,-0.0499,-0.0499,0,0,0.0081,0.0043,0.0038,0.0014,-0.0031,-0.0067,-0.0067,-0.0127,-0.0153,-0.0185,-0.0236,-0.0266,-0.0328,-0.0356,-0.0379,-0.0361,-0.0387,-0.0375,-0.0314,-0.032,-0.0313,-0.0307,-0.0295,-0.0288,-0.0366,-0.0365,-0.0365,0,0.011,0.0095,0.0032,0.0032,0.0026,-0.0043,-0.003,-0.007,-0.0134,-0.0141,-0.0176,-0.0247,-0.0298,-0.031,-0.0312,-0.0344,-0.0351,-0.0337,-0.031,-0.0305,-0.03,-0.0289,-0.0283,-0.0362,-0.0362,-0.0362,-0.0363,0,0.0132,0.0134,0.0135,0.0112,0.0092,0.0093,0.004,0.0021,-0.0016,-0.0051,-0.0079,-0.0155,-0.0189,-0.0213,-0.0264,-0.025,-0.0268,-0.0306,-0.0324,-0.0286,-0.0278,-0.0273,-0.0356,-0.0358,-0.0359,-0.036,0,0,0.0178,0.0158,0.0162,0.018,0.0143,0.0131,0.0125,0.0105,0.0119,0.0049,0.0067,-0.0017,-0.0057,-0.0085,-0.0148,-0.0162,-0.0142,-0.0216,-0.0218,-0.0194,-0.0143,-0.0155,-0.015,-0.0182,-0.0181,-0.018,-0.0146,0,0.0229,0.0255,0.0225,0.0267,0.0287,0.0241,0.0243,0.0213,0.0181,0.0178,0.0105,0.0084,-0.0009,-0.0025,-0.0053,-0.0122,-0.0127,-0.0147,-0.0191,-0.0191,-0.02,-0.0144,-0.0132,-0.0101,-0.0141,-0.0141,-0.014,0,0.0269,0.0286,0.0331,0.0359,0.0363,0.037,0.038,0.0375,0.0348,0.0321,0.029,0.0229,0.0191,0.0105,0.0032,0.002,-0.0048,-0.0103,-0.0104,-0.0135,-0.0193,-0.015,-0.009,-0.0319,-0.0132,-0.0133,-0.0133,0,0.033,0.0367,0.0408,0.0417,0.0426,0.0441,0.0442,0.0424,0.0443,0.0418,0.0435,0.0365,0.0348,0.0248,0.0127,0.0078,0.0063,-0.0019,-0.0085,-0.0086,-0.0092,-0.0095,-0.0249,-0.0052,-0.0053,-0.0053,-0.0053,0,0.0395,0.0439,0.0442,0.047,0.0527,0.0506,0.0561,0.0547,0.0565,0.0628,0.0515,0.0567,0.038,0.0341,0.0202,0.0099,0.0125,-0.0049,-0.0073,-0.0065,-0.0067,-0.0281,-0.0423,-0.0051,-0.0052,-0.0052,-0.0052,0,0.0456,0.0458,0.0517,0.0543,0.0555,0.0592,0.0639,0.0688,0.068,0.0767,0.0768,0.0732,0.0691,0.0521,0.0391,0.0218,-0.0019,0.006,0.0091,0.0069,-0.0248,-0.0386,-0.0549,-0.0644,-0.002,-0.002,-0.002,0,0.0495,0.0526,0.057,0.0609,0.0624,0.0676,0.0721,0.0734,0.0809,0.0899,0.0969,0.0955,0.1012,0.0807,0.051,0.0288,0.0045,0.0091,-0.0017,-0.0241,-0.0412,-0.0524,-0.0601,0.0013,0.0013,0.0013,0.0014,0,0.0578,0.0579,0.062,0.0696,0.0749,0.0827,0.0907,0.0989,0.1051,0.1161,0.1337,0.1407,0.1207,0.102,0.0658,0.0451,-0.0091,0.0086,-0.0155,-0.0397,-0.0518,-0.0627,-0.0031,0.0016,0.0015,0.0015,0.0015,0.0015,0.0639,0.0673,0.0719,0.0795,0.0876,0.1005,0.1107,0.1242,0.1425,0.1666,0.1675,0.187,0.1461,0.0998,0.0653,-0.0034,-0.0052,-0.0255,-0.0396,-0.0483,-0.0606,0.0003,0.0016,0.0016,0.0016,0.0016,0.0016,0,0.0711,0.0745,0.0823,0.093,0.106,0.1074,0.126,0.1409,0.1693,0.1959,0.2161,0.2117,0.1606,0.0999,0.0082,-0.0414,-0.063,-0.0709,-0.0884,-0.0935,-0.0387,-0.0421,-0.0491,-0.049,-0.049,-0.049,-0.049,-0.0489,0.075,0.0822,0.0855,0.1076,0.1177,0.1374,0.1503,0.1749,0.1987,0.2381,0.2574,0.2663,0.2163,0.049,-0.0639,-0.0911,-0.1297,-0.1378,-0.1554,-0.122,-0.1189,-0.116,-0.1225,-0.1463,-0.1464,-0.2033,-0.2039,-0.2044]}],[{"header":{"parameterUnit":"m.s-1","parameterCategory":2,"la1":30.2991,"la2":30.254,"lo1":-89.0895,"lo2":-89.0444,"dy":0.0017,"dx":0.0017,"nx":28,"ny":28,"refTime":"2025-03-30T03:00:00:Z","depth":"2","parameterNumber":2,"parameterNumberName":"U-component_of_CURRENTS"},"data":[0,0,0,0,0,0,0,0,0,0,0,0,0,0,0,0,0,0,0,0,0,0,0,0,0,0,0,0,0,0,0,0,0,0,0,0,0,0,0,0,0,0,0,0,0,0,0,0,0,0,0,0,0,0,0,0,0,0,0.318,0.318,0,0.3067,0.3064,0.3062,0.3056,0.3059,0.3062,0.3065,0.319,0.3191,0.3191,0,0,0,0,0,0,0,0,0,0,0,0,0,0.3104,0.3106,0.318,0.318,0.3181,0.3068,0.3064,0.3061,0.3056,0.3059,0.3063,0.3066,0.319,0.319,0.3191,0,0,0,0,0,0,0,0,0,0,0,0,0,0.3062,0.3106,0.318,0.3178,0.3178,0.3068,0.3064,0.306,0.3055,0.306,0.3064,0.3068,0.319,0.319,0.3191,0.3106,0,0,0.3194,0.3194,0,0,0,0,0,0,0,0,0.3065,0.3063,0.3178,0.3178,0.3178,0.3096,0.3084,0.3094,0.3054,0.3082,0.3065,0.307,0.3189,0.319,0.313,0.3112,0.3117,0.3194,0.3194,0.3195,0.3195,0,0,0,0,0,0,0,0.3068,0.3066,0.3117,0.3178,0.3178,0.3085,0.3085,0.3082,0.3102,0.308,0.3084,0.3099,0.3189,0.3128,0.3134,0.3119,0.3194,0.3194,0.3195,0.3195,0.3358,0.3361,0,0,0,0,0,0,0.3129,0.307,0.3121,0.3115,0.3152,0.3086,0.3084,0.3103,0.3097,0.3104,0.3095,0.31,0.3125,0.3133,0.3139,0.3325,0.3195,0.3195,0.3196,0.3354,0.3359,0.3363,0,0,0,0,0,0,0.3128,0.3134,0.3126,0.3104,0.3099,0.3086,0.3105,0.3099,0.3107,0.311,0.3118,0.3121,0.3129,0.3138,0.3245,0.3321,0.3196,0.3196,0.3349,0.3355,0.3361,0.3517,0,0,0,0,0,0,0.3126,0.3134,0.3155,0.3109,0.3104,0.3145,0.3102,0.3094,0.3114,0.3119,0.3133,0.3144,0.3133,0.3244,0.3245,0.332,0.3197,0.3345,0.3352,0.3359,0.3507,0.3527,0.3545,0,0,0,0,0,0.3123,0.3132,0.3157,0.3164,0.3138,0.3149,0.3137,0.3126,0.3113,0.3141,0.3174,0.3148,0.3291,0.3248,0.3248,0.3325,0.3341,0.335,0.3358,0.3499,0.3523,0.3544,0,0,0,0,0,0,0.3104,0.3132,0.3159,0.3178,0.3213,0.3158,0.3152,0.3154,0.3177,0.3215,0.3188,0.3203,0.3321,0.3302,0.3255,0.3396,0.3313,0.3322,0.342,0.3443,0.3461,0.3436,0.3198,0,0,0,0,0,0.3117,0.3136,0.3171,0.3194,0.3209,0.3188,0.3184,0.3223,0.324,0.3251,0.3229,0.3263,0.3333,0.3381,0.3404,0.3474,0.3462,0.3528,0.3547,0.3563,0.3547,0.3599,0.3621,0.3391,0.3391,0.3391,0,0,0.3109,0.3135,0.3143,0.3193,0.3187,0.3222,0.3193,0.3251,0.3316,0.3267,0.33,0.3321,0.3367,0.3462,0.3512,0.3474,0.3638,0.3574,0.3588,0.3562,0.361,0.3632,0.3652,0.3397,0.3396,0.3395,0,0,0.3115,0.3139,0.3168,0.3213,0.3292,0.328,0.3324,0.3319,0.3364,0.3439,0.3433,0.3503,0.3542,0.3587,0.3629,0.3762,0.373,0.3786,0.3868,0.3922,0.394,0.3955,0.4025,0.4046,0.3802,0.3803,0.3803,0,0.3117,0.3166,0.318,0.3242,0.3279,0.3319,0.3383,0.3424,0.3462,0.3487,0.3505,0.356,0.3602,0.3734,0.3799,0.3804,0.383,0.378,0.3944,0.3959,0.3972,0.4039,0.406,0.3811,0.381,0.3809,0.3809,0,0.3166,0.3216,0.3233,0.3316,0.3359,0.343,0.3519,0.3549,0.3586,0.3609,0.3733,0.3784,0.3809,0.3863,0.3887,0.4012,0.4003,0.3957,0.388,0.4005,0.4068,0.4087,0.3824,0.382,0.3818,0.3816,0,0,0.3131,0.3245,0.3255,0.3307,0.3427,0.3456,0.3567,0.3644,0.3685,0.3773,0.3822,0.3974,0.3962,0.4009,0.4048,0.4117,0.4272,0.4094,0.4093,0.4152,0.4418,0.427,0.4276,0.426,0.4263,0.4265,0.4444,0,0.3168,0.3277,0.3331,0.3419,0.347,0.3542,0.3607,0.3708,0.3777,0.3816,0.3953,0.4027,0.4048,0.4094,0.4173,0.4229,0.4319,0.4229,0.4295,0.4297,0.414,0.429,0.3978,0.4096,0.4462,0.4465,0.4467,0,0.3195,0.327,0.3365,0.3462,0.3486,0.3537,0.3612,0.3713,0.3822,0.3884,0.3984,0.4051,0.4206,0.4195,0.4378,0.4324,0.4387,0.4433,0.444,0.4242,0.4181,0.402,0.4115,0.4496,0.4494,0.4492,0.449,0,0.3146,0.3274,0.3335,0.3385,0.3502,0.3541,0.3604,0.3706,0.3791,0.3934,0.3992,0.414,0.4264,0.4349,0.446,0.4438,0.4627,0.4595,0.4532,0.4524,0.4233,0.4192,0.4718,0.4718,0.4717,0.4717,0.4716,0,0.3155,0.3194,0.3308,0.3357,0.3402,0.3523,0.359,0.3659,0.3795,0.3876,0.4035,0.4137,0.4313,0.4435,0.4492,0.4568,0.466,0.4567,0.456,0.4285,0.4248,0.4546,0.4523,0.4724,0.4722,0.4721,0.472,0,0.3088,0.316,0.3223,0.3352,0.3381,0.3423,0.3572,0.3622,0.3777,0.3897,0.3962,0.4187,0.4347,0.4478,0.4637,0.4624,0.4684,0.4684,0.4358,0.4307,0.4551,0.4535,0.4654,0.465,0.4647,0.4644,0.4642,0,0.3079,0.3096,0.3203,0.3216,0.327,0.336,0.341,0.3577,0.3655,0.3904,0.3955,0.4185,0.4274,0.4465,0.4495,0.4564,0.4654,0.43,0.4177,0.4563,0.4546,0.4535,0.4523,0.3902,0.3894,0.3887,0.3882,0,0.302,0.3024,0.3071,0.3136,0.3172,0.3234,0.3349,0.3384,0.3584,0.3693,0.3843,0.394,0.4166,0.4097,0.4199,0.4193,0.4248,0.4164,0.467,0.3935,0.3858,0.3839,0.3853,0.3823,0.3829,0.3833,0.3836,0.3839,0.2945,0.2924,0.2966,0.3016,0.3081,0.311,0.3084,0.3206,0.3277,0.3386,0.359,0.3639,0.377,0.3751,0.368,0.367,0.3966,0.3816,0.3835,0.3862,0.3711,0.3629,0.3526,0.353,0.3533,0.3537,0.3539,0,0.28,0.281,0.2854,0.2883,0.2909,0.3005,0.3034,0.2952,0.2959,0.3114,0.3201,0.3014,0.3016,0.3141,0.3049,0.3088,0.3056,0.2962,0.2895,0.2959,0.3014,0.2816,0.2397,0.2392,0.2388,0.2384,0,0,0.2727,0.2686,0.2717,0.2702,0.2757,0.2688,0.2656,0.2574,0.2603,0.2543,0.2578,0.2833,0.3021,0.2629,0.2636,0.2485,0.268,0.2395,0.3328,0.3311,0.3359,0.3544,0.3317,0,0,0,0,0]},{"header":{"parameterUnit":"m.s-1","parameterCategory":2,"la1":30.2991,"la2":30.254,"lo1":-89.0895,"lo2":-89.0444,"dy":0.0017,"dx":0.0017,"nx":28,"ny":28,"refTime":"2025-03-30T03:00:00:Z","depth":"2","parameterNumber":3,"parameterNumberName":"V-component_of_CURRENTS"},"data":[0,0,0,0,0,0,0,0,0,0,0,0,0,0,0,0,0,0,0,0,0,0,0,0,0,0,0,0,0,0,0,0,0,0,0,0,0,0,0,0,0,0,0,0,0,0,0,0,0,0,0,0,0,0,0,0,0,0,-0.0004,-0.0005,0,-0.0067,-0.0068,-0.0068,-0.014,-0.0141,-0.0142,-0.0143,-0.0286,-0.0288,-0.0291,0,0,0,0,0,0,0,0,0,0,0,0,0,0.0059,0.0058,-0.0004,-0.0005,-0.0006,-0.0067,-0.0068,-0.0068,-0.0139,-0.0141,-0.0142,-0.0144,-0.0285,-0.0288,-0.0291,0,0,0,0,0,0,0,0,0,0,0,0,0,0.0019,0.0058,-0.0004,-0.005,-0.0055,-0.0067,-0.0068,-0.0068,-0.0139,-0.0141,-0.0143,-0.0145,-0.0284,-0.0288,-0.0292,-0.028,0,0,-0.0304,-0.0306,0,0,0,0,0,0,0,0,0.0022,0.0017,-0.0042,-0.0047,-0.0052,-0.0099,-0.0098,-0.0144,-0.0139,-0.0105,-0.0143,-0.0145,-0.023,-0.0239,-0.0243,-0.0287,-0.0293,-0.0304,-0.0307,-0.0308,-0.031,0,0,0,0,0,0,0,0.0024,0.0019,-0.0027,-0.0043,-0.0049,-0.0066,-0.0074,-0.0106,-0.0157,-0.0109,-0.0114,-0.0123,-0.0234,-0.0239,-0.0247,-0.0295,-0.0304,-0.0308,-0.031,-0.0312,-0.0386,-0.0386,0,0,0,0,0,0,0.0031,0.0022,-0.0025,-0.0029,-0.0021,-0.0066,-0.0074,-0.0081,-0.0155,-0.0168,-0.0122,-0.0126,-0.0231,-0.0243,-0.0253,-0.0279,-0.0308,-0.0312,-0.0314,-0.0386,-0.0386,-0.0385,0,0,0,0,0,0,0.0032,0.0027,-0.0023,-0.0007,-0.0014,-0.0065,-0.0072,-0.0081,-0.0095,-0.0165,-0.0179,-0.0127,-0.0233,-0.0247,-0.0301,-0.0284,-0.0314,-0.0318,-0.0387,-0.0386,-0.0386,-0.031,0,0,0,0,0,0,0.0035,0.0028,0.0029,-0.0006,-0.0015,-0.003,-0.0071,-0.0081,-0.0098,-0.0105,-0.0174,-0.0188,-0.0236,-0.0294,-0.0305,-0.029,-0.0321,-0.0387,-0.0387,-0.0386,-0.0313,-0.0306,-0.0301,0,0,0,0,0,0.0037,0.0056,0.003,0.0024,-0.0014,-0.0029,-0.0035,-0.0076,-0.0096,-0.0096,-0.0156,-0.0187,-0.0296,-0.0298,-0.031,-0.0296,-0.0388,-0.0387,-0.0386,-0.0315,-0.0308,-0.0301,0,0,0,0,0,0,0.0091,0.0049,0.002,0.0025,-0.0005,-0.0042,-0.0039,-0.0068,-0.011,-0.0129,-0.0189,-0.0207,-0.0247,-0.0281,-0.028,-0.0315,-0.0343,-0.0345,-0.0285,-0.0279,-0.0273,-0.0242,-0.0324,0,0,0,0,0,0.0101,0.0097,0.0053,0.0056,0.0047,0.0004,-0.0006,-0.0044,-0.0086,-0.0106,-0.014,-0.0193,-0.0247,-0.0272,-0.0317,-0.0334,-0.0359,-0.0331,-0.0325,-0.032,-0.0304,-0.0335,-0.033,-0.0382,-0.0382,-0.0382,0,0,0.0121,0.0098,0.0095,0.0065,0.0043,0.0052,-0.0006,-0.0026,-0.0028,-0.0115,-0.0113,-0.0176,-0.0249,-0.0278,-0.0296,-0.0307,-0.0318,-0.0319,-0.0314,-0.03,-0.0333,-0.0328,-0.0323,-0.0382,-0.0382,-0.0382,0,0,0.017,0.0142,0.0155,0.0141,0.0101,0.0079,0.0076,0.0042,0.0014,-0.0011,-0.0076,-0.0125,-0.0179,-0.0227,-0.0264,-0.0248,-0.029,-0.0262,-0.0206,-0.0236,-0.0231,-0.0228,-0.0247,-0.0246,-0.0255,-0.0255,-0.0255,0,0.0194,0.0205,0.0159,0.0175,0.0175,0.0102,0.0124,0.0094,0.0046,0.0036,-0.0004,-0.0085,-0.015,-0.0194,-0.0201,-0.0232,-0.0257,-0.0227,-0.0227,-0.0224,-0.0222,-0.0243,-0.0242,-0.0251,-0.0252,-0.0252,-0.0252,0,0.0253,0.0263,0.0278,0.0274,0.0268,0.0272,0.0224,0.0216,0.0177,0.0146,0.0096,-0.0,-0.0044,-0.0078,-0.0144,-0.0159,-0.0184,-0.0219,-0.024,-0.0211,-0.0236,-0.0237,-0.0246,-0.0247,-0.0248,-0.0249,0,0,0.0309,0.0316,0.0322,0.0337,0.0316,0.0319,0.0323,0.0308,0.0323,0.0249,0.0264,0.0145,0.0093,0.0048,-0.0038,-0.0079,-0.0098,-0.0139,-0.0143,-0.015,-0.0159,-0.0189,-0.0193,-0.0138,-0.0138,-0.0138,-0.018,0,0.0369,0.0422,0.0408,0.0464,0.0491,0.0445,0.0471,0.0439,0.0403,0.0405,0.028,0.0251,0.0139,0.0107,0.0048,-0.0064,-0.0097,-0.0082,-0.0193,-0.0195,-0.0219,-0.0195,-0.0157,-0.0193,-0.0182,-0.0182,-0.0182,0,0.0439,0.0461,0.0526,0.0562,0.0572,0.0597,0.062,0.0627,0.0594,0.0564,0.0501,0.0412,0.0321,0.0228,0.0068,0.008,-0.0024,-0.0112,-0.0117,-0.0169,-0.0227,-0.0222,-0.0196,-0.0184,-0.0184,-0.0184,-0.0184,0,0.0503,0.0553,0.0607,0.0619,0.0647,0.0668,0.0684,0.068,0.0707,0.0666,0.0675,0.0549,0.0498,0.0339,0.0135,0.0105,-0.0027,-0.0086,-0.0205,-0.0208,-0.0208,-0.0211,-0.0171,-0.0171,-0.0171,-0.0171,-0.0171,0,0.0576,0.0624,0.0642,0.0668,0.0744,0.074,0.0817,0.0812,0.0839,0.0898,0.0758,0.0768,0.0523,0.0404,0.0203,0.0001,0.0027,-0.0182,-0.0219,-0.0181,-0.0181,-0.0203,-0.0206,-0.0173,-0.0172,-0.0172,-0.0172,0,0.064,0.0656,0.0724,0.0759,0.0774,0.0831,0.0905,0.0972,0.0972,0.1043,0.1035,0.0946,0.0791,0.0539,0.0306,0.0112,-0.0092,-0.0165,-0.0102,-0.0132,-0.027,-0.0269,-0.03,-0.0301,-0.0302,-0.0303,-0.0304,0,0.0675,0.0717,0.0781,0.083,0.0848,0.0925,0.0993,0.1031,0.1121,0.1159,0.1215,0.1094,0.1029,0.0666,0.0321,-0.0012,-0.0068,-0.0196,-0.0257,-0.0248,-0.0282,-0.0279,-0.0276,-0.0224,-0.0224,-0.0224,-0.0224,0,0.0737,0.0765,0.081,0.091,0.0986,0.1094,0.1195,0.1287,0.1359,0.1416,0.1495,0.1442,0.1103,0.0778,0.0313,0.0089,-0.0151,-0.0209,-0.0201,-0.0202,-0.0182,-0.0213,-0.0212,-0.0224,-0.0224,-0.0224,-0.0224,-0.0224,0.0781,0.0831,0.0897,0.0999,0.11,0.1257,0.1361,0.1494,0.1643,0.1741,0.1701,0.1622,0.1251,0.0658,0.0266,-0.0146,-0.0139,-0.0295,-0.0292,-0.029,-0.0279,-0.0263,-0.0317,-0.0317,-0.0318,-0.0318,-0.0318,0,0.0833,0.089,0.0983,0.1118,0.1253,0.1297,0.1497,0.161,0.1794,0.1866,0.1902,0.1544,0.1166,0.073,0.0116,-0.0253,-0.0274,-0.0362,-0.0314,-0.031,-0.0307,-0.0296,-0.034,-0.0341,-0.0342,-0.0343,0,0,0.0859,0.0952,0.1002,0.122,0.1329,0.1521,0.1642,0.1798,0.1896,0.196,0.1919,0.1811,0.1288,0.0842,0.0348,-0.0003,-0.0069,-0.0063,-0.0005,0.0115,0.0122,-0.0227,-0.0201,0,0,0,0,0]}],[{"header":{"parameterUnit":"m.s-1","parameterCategory":2,"la1":30.2991,"la2":30.254,"lo1":-89.0895,"lo2":-89.0444,"dy":0.0017,"dx":0.0017,"nx":28,"ny":28,"refTime":"2025-03-30T03:00:00:Z","depth":"4","parameterNumber":2,"parameterNumberName":"U-component_of_CURRENTS"},"data":[0,0,0,0,0,0,0,0,0,0,0,0,0,0,0,0,0,0,0,0,0,0,0,0,0,0,0,0,0,0,0,0,0,0,0,0,0,0,0,0,0,0,0,0,0,0,0,0,0,0,0,0,0,0,0,0,0,0,0.171,0.1711,0,0.1736,0.1737,0.1737,0.1813,0.1815,0.1817,0.1818,0.1958,0.196,0.1962,0,0,0,0,0,0,0,0,0,0,0,0,0,0.167,0.167,0.171,0.1711,0.1711,0.1736,0.1737,0.1737,0.1813,0.1815,0.1817,0.1819,0.1958,0.196,0.1963,0,0,0,0,0,0,0,0,0,0,0,0,0,0.169,0.167,0.171,0.1753,0.1757,0.1736,0.1737,0.1737,0.1812,0.1815,0.1818,0.182,0.1957,0.196,0.1963,0.193,0,0,0.1973,0.1974,0,0,0,0,0,0,0,0,0.1689,0.1691,0.1746,0.175,0.1754,0.1775,0.1774,0.1808,0.1812,0.179,0.1818,0.1821,0.1906,0.1914,0.191,0.1937,0.1943,0.1973,0.1975,0.1976,0.1977,0,0,0,0,0,0,0,0.1687,0.169,0.172,0.1746,0.1751,0.1751,0.1757,0.178,0.1835,0.1792,0.1798,0.1802,0.191,0.1906,0.1914,0.1945,0.1973,0.1976,0.1978,0.1979,0.2151,0.2153,0,0,0,0,0,0,0.1686,0.1689,0.1719,0.1721,0.1728,0.175,0.1757,0.1765,0.1832,0.1844,0.1799,0.1805,0.19,0.191,0.192,0.204,0.1976,0.1979,0.1981,0.2148,0.2151,0.2154,0,0,0,0,0,0,0.1685,0.1688,0.1718,0.1706,0.171,0.1748,0.1756,0.1764,0.1809,0.1836,0.1851,0.1843,0.1902,0.1915,0.1997,0.2041,0.1981,0.1983,0.2145,0.2149,0.2153,0.2182,0,0,0,0,0,0,0.1683,0.1688,0.1702,0.1706,0.1711,0.1737,0.1754,0.1763,0.1805,0.1814,0.1877,0.189,0.1905,0.1992,0.2,0.2044,0.1986,0.2142,0.2147,0.2152,0.2178,0.2187,0.2194,0,0,0,0,0,0.1682,0.1683,0.1703,0.1707,0.1726,0.1737,0.174,0.1775,0.1805,0.1826,0.1886,0.1891,0.203,0.1996,0.2005,0.2051,0.2139,0.2145,0.2151,0.2174,0.2185,0.2194,0,0,0,0,0,0,0.1674,0.169,0.1713,0.1721,0.1746,0.1752,0.1768,0.1795,0.1852,0.1874,0.1913,0.193,0.2016,0.2034,0.1996,0.212,0.2089,0.2097,0.2104,0.2114,0.2122,0.2139,0.1989,0,0,0,0,0,0.1676,0.169,0.1707,0.1722,0.1733,0.176,0.1774,0.1797,0.1838,0.1867,0.1917,0.1979,0.2035,0.2078,0.2117,0.2179,0.2196,0.2221,0.2229,0.2236,0.2259,0.2302,0.2315,0.2174,0.2174,0.2174,0,0,0.1681,0.1691,0.1703,0.1723,0.1743,0.1772,0.1777,0.1803,0.1837,0.1872,0.1951,0.2002,0.2058,0.2131,0.2172,0.2161,0.2289,0.2243,0.2248,0.2269,0.231,0.2323,0.2335,0.2178,0.2177,0.2177,0,0,0.1685,0.1706,0.1719,0.1739,0.1769,0.179,0.1811,0.1843,0.187,0.1927,0.1982,0.2072,0.2133,0.2203,0.2239,0.2319,0.2322,0.2337,0.24,0.2441,0.2452,0.2462,0.2505,0.2518,0.235,0.235,0.235,0,0.1695,0.1712,0.1726,0.1744,0.1769,0.1811,0.184,0.1864,0.1926,0.1955,0.1961,0.2117,0.2166,0.2288,0.2333,0.2337,0.236,0.2349,0.2448,0.2459,0.2469,0.251,0.2525,0.2352,0.2352,0.2352,0.2351,0,0.1703,0.1732,0.1741,0.1791,0.1819,0.1846,0.1883,0.1928,0.1967,0.1996,0.2103,0.2179,0.2286,0.2316,0.2352,0.2474,0.2468,0.244,0.2413,0.2484,0.2524,0.2539,0.2355,0.2354,0.2354,0.2353,0,0,0.1679,0.1739,0.1745,0.1781,0.1844,0.1867,0.1926,0.1984,0.2041,0.2099,0.2177,0.23,0.2362,0.2414,0.2485,0.2541,0.2638,0.2539,0.254,0.2564,0.2739,0.2585,0.2586,0.262,0.2623,0.2625,0.2739,0,0.1689,0.1733,0.1762,0.1832,0.1863,0.1919,0.1975,0.2035,0.2086,0.217,0.2249,0.2353,0.2391,0.2472,0.2539,0.2628,0.2679,0.2611,0.2683,0.2686,0.2525,0.2598,0.2634,0.2749,0.2753,0.2755,0.2757,0,0.1677,0.1714,0.1772,0.1859,0.1879,0.1942,0.2047,0.2097,0.2203,0.2243,0.236,0.242,0.2587,0.2563,0.2744,0.2702,0.2736,0.2769,0.2772,0.2631,0.2559,0.2667,0.2783,0.2781,0.2779,0.2777,0.2776,0,0.1629,0.1717,0.177,0.1798,0.1904,0.1957,0.2032,0.2134,0.218,0.2321,0.2379,0.2538,0.2646,0.2721,0.2825,0.2795,0.2966,0.2914,0.2801,0.2791,0.2879,0.2867,0.2994,0.2993,0.2993,0.2993,0.2993,0,0.1593,0.1641,0.177,0.1787,0.1872,0.1961,0.2055,0.2133,0.2261,0.2329,0.2447,0.2533,0.2687,0.2792,0.2852,0.2892,0.2992,0.2834,0.2813,0.2891,0.2879,0.2889,0.2876,0.2997,0.2996,0.2995,0.2995,0,0.1515,0.1593,0.1663,0.1795,0.1841,0.1908,0.2054,0.2116,0.2257,0.2356,0.2409,0.2571,0.2716,0.2835,0.2973,0.2917,0.2968,0.294,0.3048,0.3027,0.2758,0.2745,0.2823,0.2819,0.2815,0.2812,0.2809,0,0.1477,0.1509,0.1644,0.1681,0.1748,0.1863,0.1927,0.209,0.2155,0.2357,0.2391,0.2573,0.2668,0.2755,0.2883,0.2973,0.2934,0.2922,0.2814,0.2771,0.2743,0.2736,0.2729,0.2804,0.2803,0.2802,0.2801,0,0.1403,0.1468,0.1517,0.1592,0.1674,0.1741,0.186,0.1903,0.2085,0.2235,0.2328,0.2405,0.2552,0.2665,0.2753,0.2803,0.2914,0.2882,0.2888,0.2787,0.2748,0.2722,0.2719,0.2788,0.279,0.2791,0.2791,0,0.136,0.1374,0.1436,0.1496,0.1569,0.1593,0.168,0.1782,0.1874,0.2114,0.2145,0.2349,0.2522,0.2579,0.2666,0.2708,0.2664,0.2558,0.2581,0.2597,0.2471,0.2385,0.2313,0,0,0,0,0,0.1309,0.1296,0.1331,0.1375,0.1436,0.1484,0.161,0.1709,0.1906,0.1923,0.2032,0.216,0.2285,0.2393,0.2398,0.2571,0.2671,0.2562,0.2558,0.2716,0.2731,0.2604,0,0,0,0,0,0,0.127,0.1286,0.1286,0.1251,0.1267,0.1326,0.1407,0.1546,0.1574,0.1783,0.1877,0.2027,0.2198,0.2276,0.2358,0.2393,0.2346,0.2701,0.2695,0.2707,0.2721,0.2733,0.2608,0,0,0,0,0]},{"header":{"parameterUnit":"m.s-1","parameterCategory":2,"la1":30.2991,"la2":30.254,"lo1":-89.0895,"lo2":-89.0444,"dy":0.0017,"dx":0.0017,"nx":28,"ny":28,"refTime":"2025-03-30T03:00:00:Z","depth":"4","parameterNumber":3,"parameterNumberName":"V-component_of_CURRENTS"},"data":[0,0,0,0,0,0,0,0,0,0,0,0,0,0,0,0,0,0,0,0,0,0,0,0,0,0,0,0,0,0,0,0,0,0,0,0,0,0,0,0,0,0,0,0,0,0,0,0,0,0,0,0,0,0,0,0,0,0,0.0118,0.0118,0,0.0072,0.0072,0.0071,0.002,0.002,0.0019,0.0018,-0.0076,-0.0078,-0.008,0,0,0,0,0,0,0,0,0,0,0,0,0,0.0127,0.0127,0.0119,0.0118,0.0118,0.0072,0.0072,0.0071,0.002,0.002,0.0019,0.0018,-0.0075,-0.0078,-0.008,0,0,0,0,0,0,0,0,0,0,0,0,0,0.0105,0.0128,0.0119,0.0089,0.0086,0.0073,0.0071,0.007,0.002,0.002,0.0019,0.0018,-0.0075,-0.0078,-0.0081,-0.0083,0,0,-0.009,-0.0091,0,0,0,0,0,0,0,0,0.0106,0.0104,0.0093,0.0091,0.0087,0.0053,0.004,0.0017,0.0021,0.0043,0.0018,0.0018,-0.0035,-0.0042,-0.0051,-0.0087,-0.0092,-0.009,-0.0092,-0.0093,-0.0094,0,0,0,0,0,0,0,0.0108,0.0106,0.0098,0.0093,0.0089,0.0065,0.0061,0.0035,0.0006,0.0041,0.0038,0.0036,-0.0038,-0.0048,-0.0054,-0.0093,-0.009,-0.0093,-0.0095,-0.0096,-0.015,-0.015,0,0,0,0,0,0,0.0121,0.0108,0.0099,0.0097,0.0097,0.0066,0.0062,0.0063,0.0007,-0.0001,0.0037,0.0034,-0.0042,-0.005,-0.0057,-0.0059,-0.0093,-0.0096,-0.0098,-0.0151,-0.015,-0.015,0,0,0,0,0,0,0.0121,0.0121,0.0101,0.0102,0.0099,0.0067,0.0069,0.0063,0.0054,0.0005,-0.0004,0.0036,-0.0043,-0.0053,-0.0083,-0.0063,-0.0097,-0.01,-0.0151,-0.015,-0.015,-0.0066,0,0,0,0,0,0,0.0122,0.0121,0.0127,0.0104,0.0099,0.0104,0.007,0.0062,0.0056,0.0051,0.0001,-0.0009,-0.0045,-0.0078,-0.0086,-0.0068,-0.0102,-0.0151,-0.0151,-0.015,-0.0069,-0.0062,-0.0056,0,0,0,0,0,0.0122,0.0143,0.0128,0.0127,0.0109,0.0105,0.0101,0.0074,0.0057,0.0061,0.0018,-0.0007,-0.008,-0.0081,-0.009,-0.0072,-0.0152,-0.0151,-0.015,-0.0072,-0.0063,-0.0057,0,0,0,0,0,0,0.0155,0.014,0.0122,0.0138,0.0124,0.0097,0.0103,0.0082,0.0053,0.0048,-0.0005,-0.0018,-0.0038,-0.0068,-0.0068,-0.0087,-0.0118,-0.0119,-0.0055,-0.0048,-0.0042,-0.0023,-0.0105,0,0,0,0,0,0.0165,0.017,0.0152,0.0161,0.0161,0.0132,0.0127,0.0111,0.0083,0.007,0.0037,-0.0003,-0.004,-0.0054,-0.0089,-0.0097,-0.0138,-0.0092,-0.0085,-0.008,-0.0071,-0.0131,-0.0129,-0.0147,-0.0147,-0.0147,0,0,0.0178,0.0171,0.0173,0.0168,0.0155,0.0167,0.0127,0.013,0.014,0.0065,0.0068,0.0017,-0.004,-0.0054,-0.0064,-0.0076,-0.0094,-0.0079,-0.0073,-0.0068,-0.013,-0.0128,-0.0127,-0.0146,-0.0147,-0.0147,0,0,0.0214,0.0205,0.0223,0.0223,0.0216,0.0198,0.0204,0.0186,0.018,0.0175,0.0114,0.0074,0.0039,-0.0006,-0.0033,-0.0013,-0.0064,-0.002,0.0033,-0.0025,-0.0024,-0.0024,-0.0062,-0.0066,-0.0011,-0.0011,-0.0011,0,0.0231,0.025,0.0228,0.0252,0.0259,0.0219,0.0245,0.0238,0.0212,0.0206,0.0191,0.0111,0.0064,0.0024,0.0028,0.0003,-0.0035,0.0012,-0.0016,-0.0017,-0.0018,-0.0058,-0.0063,-0.0007,-0.0007,-0.0008,-0.0008,0,0.0283,0.03,0.0316,0.0327,0.0331,0.035,0.0338,0.0341,0.0326,0.0306,0.0276,0.0205,0.0156,0.0134,0.0089,0.0057,0.0031,-0.0005,-0.0031,-0.0011,-0.0054,-0.0061,-0.0001,-0.0003,-0.0004,-0.0005,0,0,0.0318,0.0345,0.0353,0.0372,0.0375,0.0387,0.0408,0.0407,0.0421,0.0388,0.0391,0.0316,0.0269,0.0233,0.0164,0.0114,0.0073,0.0061,0.0056,0.0031,-0.0043,-0.005,-0.0059,0.0028,0.0027,0.0027,-0.0065,0,0.0363,0.0423,0.0422,0.0474,0.05,0.0484,0.0508,0.0502,0.0488,0.0484,0.0406,0.038,0.031,0.0285,0.0223,0.01,0.0057,0.0103,-0.0065,-0.007,-0.0073,-0.0067,0.0024,-0.0071,-0.0072,-0.0074,-0.0074,0,0.0419,0.0446,0.0511,0.0546,0.0558,0.0584,0.0607,0.0629,0.0606,0.0591,0.0543,0.0482,0.0398,0.0344,0.0167,0.0197,0.0094,0.0004,-0.0002,-0.0043,-0.009,-0.0101,-0.0088,-0.0087,-0.0086,-0.0085,-0.0084,0,0.0456,0.0511,0.0564,0.0582,0.0616,0.0643,0.0661,0.066,0.0692,0.066,0.0661,0.0551,0.0503,0.0354,0.0175,0.0168,-0.0019,-0.0054,-0.0152,-0.0154,-0.0157,-0.0157,-0.0163,-0.0162,-0.0162,-0.0162,-0.0162,0,0.0507,0.055,0.0591,0.0624,0.0688,0.0698,0.0765,0.0763,0.0779,0.0811,0.0722,0.0703,0.0502,0.0374,0.0203,0.0006,0.0002,-0.0138,-0.018,-0.0118,-0.0112,-0.0162,-0.016,-0.0165,-0.0165,-0.0164,-0.0163,0,0.0543,0.0574,0.0638,0.0688,0.0712,0.0764,0.0843,0.0891,0.0888,0.0926,0.0922,0.0815,0.0642,0.0438,0.0192,0.0055,-0.0141,-0.0206,-0.0106,-0.0141,-0.0241,-0.0234,-0.0319,-0.032,-0.0321,-0.0322,-0.0322,0,0.0564,0.0602,0.0687,0.0736,0.0766,0.0846,0.0906,0.0942,0.0993,0.0987,0.1002,0.0871,0.0768,0.043,0.0198,-0.0112,-0.0161,-0.0254,-0.0262,-0.0226,-0.0258,-0.025,-0.0242,-0.0324,-0.0324,-0.0324,-0.0324,0,0.0588,0.0627,0.0676,0.0781,0.0859,0.0953,0.1034,0.1078,0.112,0.1121,0.1068,0.0902,0.0711,0.0442,0.0205,-0.0024,-0.0194,-0.0264,-0.0264,-0.0272,-0.0233,-0.0262,-0.0253,-0.0328,-0.0327,-0.0327,-0.0327,0,0.0601,0.0641,0.0715,0.0809,0.0916,0.1018,0.1066,0.1117,0.1165,0.1157,0.1134,0.0928,0.0815,0.0487,0.026,0.0042,-0.002,-0.0096,-0.0105,-0.0105,-0.0026,0.0057,0.0022,0,0,0,0,0,0.0602,0.065,0.0735,0.0843,0.0956,0.1022,0.1131,0.1173,0.1213,0.1191,0.1169,0.0992,0.0667,0.0524,0.0306,0.0222,-0.0072,-0.0044,-0.0167,-0.0345,-0.0341,-0.0287,0,0,0,0,0,0,0.0603,0.0678,0.0724,0.0854,0.0936,0.1065,0.114,0.1173,0.1161,0.1165,0.0999,0.0927,0.0612,0.0791,0.0297,0.0231,0.012,-0.0191,-0.0196,-0.0347,-0.0344,-0.0341,-0.0283,0,0,0,0,0]}]]